DW4230 Weather Reports


time (UTC)temp
F
wind
direction
speed
knots
gust
knots
rain 1hr
in
rain 24hr
in
rain mn
in
humidity
%
barometer
mb
20260831014611 72 274 6.1 15.6 0.00 0.00 0.00 89 1015.9
20260831013043 72 262 4.3 17.4 0.00 0.00 0.00 89 1016.0
20260831011510 72 283 7.0 14.8 0.00 0.00 0.00 89 1015.9
20260831010100 72 283 6.1 18.2 0.00 0.00 0.00 88 1015.8
20260831004519 72 283 6.1 15.6 0.00 0.00 0.00 88 1015.9
20260831003104 72 207 6.1 14.8 0.00 0.00 0.00 88 1015.8
20260831001528 72 272 6.1 15.6 0.00 0.00 0.00 89 1015.7
20260831000105 72 124 3.5 18.2 0.00 0.00 0.00 89 1015.6
20260830234525 72 277 5.2 18.2 0.00 0.00 0.00 88 1015.4
20260830233101 72 124 5.2 12.2 0.00 0.00 0.00 88 1015.5
20260830231531 72 257 2.6 13.9 0.00 0.00 0.00 88 1015.4
20260830230003 72 124 6.1 16.5 0.00 0.00 0.00 88 1015.4
20260830224542 72 124 6.1 17.4 0.00 0.00 0.00 87 1015.4
20260830223012 73 124 6.1 14.8 0.00 0.00 0.00 87 1015.5
20260830220108 73 275 7.0 17.4 0.00 0.00 0.00 87 1015.6
20260830214532 73 255 4.3 13.9 0.00 0.00 0.00 86 1016.0
20260830213113 73 269 3.5 14.8 0.00 0.00 0.00 85 1015.9
20260830211528 73 124 4.3 13.0 0.00 0.00 0.00 84 1016.0
20260830210108 74 272 5.2 15.6 0.00 0.00 0.00 81 1016.1
20260830204542 74 272 6.1 13.0 0.00 0.00 0.00 82 1016.1
20260830203012 74 255 2.6 13.0 0.00 0.00 0.00 81 1016.0
20260830201547 74 124 6.1 16.5 0.00 0.00 0.00 79 1016.1
20260830200016 76 281 4.3 14.8 0.00 0.00 0.00 77 1016.2
20260830194556 76 124 3.5 11.3 0.00 0.00 0.00 76 1016.4
20260830193030 78 124 5.2 14.8 0.00 0.00 0.00 72 1016.5
20260830191555 78 243 3.5 13.9 0.00 0.00 0.00 71 1016.5
20260830190026 76 273 7.8 13.9 0.00 0.00 0.00 74 1016.8
20260830184608 77 265 5.2 13.0 0.00 0.00 0.00 73 1017.1
20260830183044 76 124 7.0 15.6 0.00 0.00 0.00 76 1017.2
20260830181511 76 258 4.3 16.5 0.00 0.00 0.00 77 1017.4
20260830180056 76 259 3.5 13.0 0.00 0.00 0.00 74 1017.6
20260830174528 76 124 5.2 15.6 0.00 0.00 0.00 76 1017.7
20260830173100 76 261 8.7 16.5 0.00 0.00 0.00 78 1017.7
20260830171524 75 124 8.7 15.6 0.00 0.00 0.00 80 1017.7
20260830170049 76 271 8.7 15.6 0.00 0.00 0.00 80 1017.8
20260830164502 77 257 5.2 11.3 0.00 0.00 0.00 79 1017.7
20260830163039 76 260 5.2 13.0 0.00 0.00 0.00 79 1017.8
20260830161506 76 124 7.0 13.9 0.00 0.00 0.00 81 1017.8
20260830160047 75 287 6.1 13.0 0.00 0.00 0.00 81 1018.3
20260830154512 75 264 4.3 14.8 0.00 0.00 0.00 82 1018.4
20260830153050 75 254 5.2 13.9 0.00 0.00 0.00 83 1018.6
20260830151513 75 124 5.2 13.9 0.00 0.00 0.00 83 1018.7
20260830150113 74 274 6.1 13.0 0.00 0.00 0.00 83 1018.8
20260830144505 74 308 5.2 13.0 0.00 0.00 0.00 82 1018.9
20260830143043 73 124 2.6 13.9 0.00 0.00 0.00 83 1019.1
20260830141506 74 124 4.3 11.3 0.00 0.00 0.00 82 1019.1
20260830140052 74 269 3.5 8.7 0.00 0.00 0.00 79 1019.2
20260830134533 73 124 3.5 7.8 0.00 0.00 0.00 78 1019.3
20260830133055 73 279 4.3 10.4 0.00 0.00 0.00 80 1019.6
20260830131528 72 289 4.3 8.7 0.00 0.00 0.00 82 1019.7
20260830130111 71 124 4.3 8.7 0.00 0.00 0.00 85 1019.8
20260830124524 70 278 3.5 8.7 0.00 0.00 0.00 87 1019.7
20260830123059 69 252 4.3 10.4 0.00 0.00 0.00 87 1019.9
20260830121516 70 320 3.5 11.3 0.00 0.00 0.00 88 1019.8
20260830120058 69 262 1.7 12.2 0.00 0.00 0.00 89 1019.8
20260830114521 69 288 4.3 10.4 0.00 0.00 0.00 89 1019.6
20260830113102 68 273 5.2 12.2 0.00 0.00 0.00 89 1019.5
20260830111531 69 276 4.3 10.4 0.00 0.00 0.00 90 1019.7
20260830110001 68 260 3.5 8.7 0.00 0.00 0.00 90 1019.7
20260830104543 68 264 2.6 8.7 0.00 0.00 0.00 91 1019.7
20260830103006 68 285 3.5 9.6 0.00 0.00 0.00 91 1019.8
20260830101545 68 274 2.6 11.3 0.00 0.00 0.00 90 1019.8
20260830100109 67 292 3.5 9.6 0.00 0.00 0.00 91 1019.9
20260830094529 67 281 2.6 8.7 0.00 0.00 0.00 91 1019.7
20260830093104 67 124 2.6 9.6 0.00 0.00 0.00 91 1019.8
20260830083005 67 283 1.7 6.1 0.00 0.00 0.00 89 1020.5
20260830081542 67 285 2.6 8.7 0.00 0.00 0.00 89 1020.4
20260830080011 67 299 1.7 8.7 0.00 0.00 0.00 90 1020.3
20260830074547 67 275 2.6 8.7 0.00 0.00 0.00 90 1020.2
20260830073010 67 264 1.7 8.7 0.00 0.00 0.00 89 1020.2
20260830071541 67 281 1.7 7.0 0.00 0.00 0.00 88 1020.0
20260830070018 67 276 2.6 7.0 0.00 0.00 0.00 87 1020.1
20260830064556 67 263 1.7 8.7 0.00 0.00 0.00 86 1020.0
20260830063027 67 268 1.7 7.8 0.00 0.00 0.00 85 1020.1
20260830053029 67 289 1.7 7.8 0.00 0.00 0.00 87 1020.0
20260830051613 67 284 1.7 6.1 0.00 0.00 0.00 88 1020.1
20260830050032 67 295 1.7 6.1 0.00 0.00 0.00 88 1020.0
20260830044510 67 288 1.7 7.0 0.00 0.00 0.00 87 1020.2
20260830043038 67 289 1.7 7.0 0.00 0.00 0.00 87 1020.3
20260830041510 67 289 2.6 8.7 0.00 0.00 0.00 87 1020.3
20260830040058 67 293 1.7 7.0 0.00 0.00 0.00 86 1020.1
20260830034532 68 281 1.7 7.8 0.00 0.00 0.00 86 1020.1
20260830033104 68 279 2.6 9.6 0.00 0.00 0.00 85 1020.0
20260830031532 68 279 1.7 9.6 0.00 0.00 0.00 84 1020.1
20260830030144 69 279 4.3 13.0 0.00 0.00 0.00 83 1020.1
20260830024539 69 124 3.5 11.3 0.00 0.00 0.00 82 1020.1
20260830023111 69 284 3.5 9.6 0.00 0.00 0.00 82 1020.1
20260830021543 69 124 1.7 8.7 0.00 0.00 0.00 83 1020.1
20260830020107 69 276 2.6 11.3 0.00 0.00 0.00 83 1020.0